Location: Little Baddow
(51.7333°N, 0.5667°E)
Time: 01:05:38
(UTC+00:00)

Okean 1-7 - Pass Details

Date: 08 November 2025
Orbit: 566 x 590 km, 82.5° (Epoch: 13 December)

Event Time Altitude Azimuth Distance (km) Brightness Sun altitude
Exits shadow 04:13:15 54° 53° (NE) 720 3.6 -26.6°
Drops below altitude 10° 04:16:49 10° 16° (NNE) 1,927 5.8 -26.0°
Sets 04:19:03 0° 14° (NNE) 2,836 6.7 -25.7°
